Weather History for KHYS - July, 2013

Change the Weather History Date:

Thursday, July 18, 2013

  Actual Average Record
Temperature  
Mean Temperature 80 °F -  
Max Temperature 95 °F 90 °F 105 °F (2003)
Min Temperature 66 °F 65 °F 60 °F (2014)
Cooling Degree Days 16    
Growing Degree Days 30 (Base 50)    
Moisture  
Dew Point 63 °F    
Average Humidity 60    
Maximum Humidity 94    
Minimum Humidity 32    
Precipitation  
Precipitation 0.00 in - - ()
Sea Level Pressure  
Sea Level Pressure 30.11 in    
Wind  
Wind Speed 8 mph (South)    
Max Wind Speed 14 mph    
Max Gust Speed 18 mph    
Visibility 10 miles    
Events      
Averages and records for this station are not official NWS values.
T = Trace of Precipitation, MM = Missing Value Source: NWS Daily Summary

Daily Weather History Graph

Daily Weather History Graph

Search for Another Location

Airport or City:

Trip Planner

Search our weather history database for the weather conditions in past years. The results will help you decide how hot, cold, wet, or windy it might be!

Date:

Astronomy

Jul. 18, 2013 Rise Set
Actual Time 6:26 AM CDT 8:59 PM CDT
Civil Twilight 5:55 AM CDT 9:30 PM CDT
Nautical Twilight 5:17 AM CDT 10:08 PM CDT
Astronomical Twilight 4:34 AM CDT 10:51 PM CDT
Moon 4:58 PM CDT (7/18) 2:17 AM CDT (7/18)
Length of Visible Light 15h 34m
Length of Day
14h 32m
Waxing Gibbous, 77% of the Moon is Illuminated
Jul 18
Waxing Gibbous
Jul 22
Full
Jul 29
Last Quarter
Aug 6
New
Aug 14
First Quarter

Hourly Weather History & Observations

Time (CDT) Temp. Heat Index Dew Point Humidity Pressure Visibility Wind Dir Wind Speed Gust Speed Precip Events Conditions
12:15 AM 73.4 °F - 66.2 °F 78% 30.23 in 10.0 mi South 6.9 mph - N/A   Clear
12:35 AM 73.4 °F - 66.2 °F 78% 30.23 in 10.0 mi South 8.1 mph - N/A   Clear
12:55 AM 73.4 °F - 66.2 °F 78% 30.23 in 10.0 mi South 6.9 mph - N/A   Clear
1:15 AM 73.4 °F - 66.2 °F 78% 30.23 in 10.0 mi South 6.9 mph - N/A   Clear
1:35 AM 73.4 °F - 66.2 °F 78% 30.23 in 10.0 mi SSW 5.8 mph - N/A   Clear
1:55 AM 71.6 °F - 66.2 °F 83% 30.23 in 10.0 mi SSW 4.6 mph - N/A   Clear
2:15 AM 69.8 °F - 64.4 °F 83% 30.23 in 10.0 mi SSW 3.5 mph - N/A   Clear
2:35 AM 69.8 °F - 64.4 °F 83% 30.22 in 10.0 mi Calm Calm - N/A   Clear
2:55 AM 69.8 °F - 64.4 °F 83% 30.22 in 10.0 mi Calm Calm - N/A   Clear
3:15 AM 69.8 °F - 64.4 °F 83% 30.21 in 10.0 mi Calm Calm - N/A   Clear
3:35 AM 68.0 °F - 64.4 °F 88% 30.21 in 10.0 mi SSE 4.6 mph - N/A   Clear
3:55 AM 66.2 °F - 64.4 °F 94% 30.21 in 10.0 mi SSE 4.6 mph - N/A   Clear
4:15 AM 66.2 °F - 64.4 °F 94% 30.21 in 10.0 mi SSE 4.6 mph - N/A   Clear
4:35 AM 66.2 °F - 64.4 °F 94% 30.20 in 10.0 mi SSE 4.6 mph - N/A   Clear
4:55 AM 66.2 °F - 64.4 °F 94% 30.20 in 10.0 mi South 4.6 mph - N/A   Clear
5:15 AM 66.2 °F - 64.4 °F 94% 30.20 in 10.0 mi South 4.6 mph - N/A   Clear
5:35 AM 66.2 °F - 64.4 °F 94% 30.20 in 10.0 mi South 4.6 mph - N/A   Clear
5:55 AM 66.2 °F - 64.4 °F 94% 30.20 in 10.0 mi South 4.6 mph - N/A   Clear
6:15 AM 66.2 °F - 64.4 °F 94% 30.19 in 9.0 mi South 5.8 mph - N/A   Clear
6:35 AM 66.2 °F - 64.4 °F 94% 30.19 in 9.0 mi SSW 5.8 mph - N/A   Clear
6:55 AM 66.2 °F - 64.4 °F 94% 30.20 in 9.0 mi SSW 4.6 mph - N/A   Clear
7:15 AM 68.0 °F - 66.2 °F 94% 30.20 in 10.0 mi South 4.6 mph - N/A   Clear
7:35 AM 69.8 °F - 66.2 °F 88% 30.19 in 10.0 mi South 6.9 mph - N/A   Clear
7:55 AM 69.8 °F - 66.2 °F 88% 30.19 in 10.0 mi South 6.9 mph - N/A   Clear
8:15 AM 71.6 °F - 66.2 °F 83% 30.20 in 10.0 mi South 9.2 mph - N/A   Clear
8:35 AM 73.4 °F - 66.2 °F 78% 30.19 in 10.0 mi SSW 9.2 mph - N/A   Clear
8:55 AM 75.2 °F - 68.0 °F 78% 30.19 in 10.0 mi SSW 10.4 mph - N/A   Partly Cloudy
9:15 AM 78.8 °F - 66.2 °F 65% 30.19 in 10.0 mi SSW 12.7 mph - N/A   Clear
9:35 AM 78.8 °F - 66.2 °F 65% 30.18 in 10.0 mi SW 12.7 mph - N/A   Partly Cloudy
9:55 AM 80.6 °F 82.7 °F 66.2 °F 61% 30.17 in 10.0 mi SSW 12.7 mph - N/A   Partly Cloudy
10:15 AM 82.4 °F 84.6 °F 66.2 °F 58% 30.17 in 10.0 mi SSW 12.7 mph - N/A   Scattered Clouds
10:35 AM 82.4 °F 84.6 °F 66.2 °F 58% 30.16 in 10.0 mi South 12.7 mph - N/A   Partly Cloudy
10:55 AM 84.2 °F 86.6 °F 66.2 °F 55% 30.15 in 10.0 mi South 13.8 mph - N/A   Clear
11:15 AM 84.2 °F 85.6 °F 64.4 °F 51% 30.15 in 9.0 mi SSW 13.8 mph - N/A   Clear
11:35 AM 87.8 °F 89.4 °F 64.4 °F 46% 30.14 in 10.0 mi SSW 13.8 mph - N/A   Clear
11:55 AM 87.8 °F 89.4 °F 64.4 °F 46% 30.14 in 10.0 mi SSW 13.8 mph 18.4 mph N/A   Scattered Clouds
12:15 PM 87.8 °F 89.4 °F 64.4 °F 46% 30.13 in 10.0 mi South 12.7 mph - N/A   Scattered Clouds
12:35 PM 89.6 °F 91.1 °F 64.4 °F 43% 30.12 in 10.0 mi South 12.7 mph - N/A   Partly Cloudy
12:55 PM 89.6 °F 91.1 °F 64.4 °F 43% 30.11 in 10.0 mi South 13.8 mph - N/A   Partly Cloudy
1:15 PM 89.6 °F 90.1 °F 62.6 °F 40% 30.10 in 10.0 mi SSW 11.5 mph - N/A   Partly Cloudy
1:35 PM 91.4 °F 92.1 °F 62.6 °F 38% 30.09 in 10.0 mi South 11.5 mph - N/A   Partly Cloudy
1:55 PM 91.4 °F 91.4 °F 60.8 °F 36% 30.09 in 10.0 mi South 11.5 mph - N/A   Partly Cloudy
2:15 PM 91.4 °F 91.4 °F 60.8 °F 36% 30.08 in 10.0 mi South 12.7 mph - N/A   Scattered Clouds
2:35 PM 93.2 °F 93.3 °F 60.8 °F 34% 30.06 in 10.0 mi SSW 12.7 mph - N/A   Partly Cloudy
2:55 PM 93.2 °F 93.3 °F 60.8 °F 34% 30.06 in 10.0 mi SSW 10.4 mph - N/A   Partly Cloudy
3:15 PM 93.2 °F 93.3 °F 60.8 °F 34% 30.05 in 10.0 mi South 11.5 mph - N/A   Partly Cloudy
3:35 PM 93.2 °F 93.3 °F 60.8 °F 34% 30.04 in 10.0 mi South 12.7 mph - N/A   Scattered Clouds
3:55 PM 95.0 °F 95.2 °F 60.8 °F 32% 30.04 in 10.0 mi SSW 11.5 mph - N/A   Mostly Cloudy
4:15 PM 93.2 °F 93.3 °F 60.8 °F 34% 30.03 in 10.0 mi SSW 11.5 mph - N/A   Scattered Clouds
4:35 PM 93.2 °F 93.3 °F 60.8 °F 34% 30.03 in 10.0 mi South 10.4 mph - N/A   Mostly Cloudy
4:55 PM 93.2 °F 93.3 °F 60.8 °F 34% 30.02 in 10.0 mi South 12.7 mph - N/A   Scattered Clouds
5:15 PM 93.2 °F 93.3 °F 60.8 °F 34% 30.02 in 10.0 mi SSW 11.5 mph - N/A   Scattered Clouds
5:35 PM 93.2 °F 93.3 °F 60.8 °F 34% 30.01 in 10.0 mi SSW 11.5 mph - N/A   Partly Cloudy
5:55 PM 91.4 °F 91.4 °F 60.8 °F 36% 30.00 in 10.0 mi SSW 11.5 mph - N/A   Partly Cloudy
6:15 PM 91.4 °F 91.4 °F 60.8 °F 36% 29.99 in 10.0 mi South 10.4 mph 17.3 mph N/A   Clear
6:35 PM 91.4 °F 91.4 °F 60.8 °F 36% 29.99 in 10.0 mi SSW 10.4 mph - N/A   Partly Cloudy
6:55 PM 91.4 °F 90.7 °F 59.0 °F 34% 29.98 in 10.0 mi SSW 11.5 mph - N/A   Partly Cloudy
7:15 PM 91.4 °F 90.7 °F 59.0 °F 34% 29.98 in 10.0 mi SSW 11.5 mph - N/A   Clear
7:35 PM 89.6 °F 88.9 °F 59.0 °F 36% 29.98 in 10.0 mi SSW 10.4 mph - N/A   Clear
7:55 PM 89.6 °F 88.9 °F 59.0 °F 36% 29.98 in 10.0 mi South 10.4 mph - N/A   Clear
8:15 PM 87.8 °F 87.1 °F 59.0 °F 38% 29.99 in 10.0 mi SSW 10.4 mph - N/A   Clear
8:35 PM 87.8 °F 87.1 °F 59.0 °F 38% 29.99 in 10.0 mi South 9.2 mph - N/A   Clear
8:55 PM 86.0 °F 85.4 °F 59.0 °F 40% 29.99 in 10.0 mi South 9.2 mph - N/A   Clear
9:15 PM 84.2 °F 84.4 °F 60.8 °F 45% 30.00 in 10.0 mi South 6.9 mph - N/A   Clear
9:35 PM 82.4 °F 82.9 °F 60.8 °F 48% 30.00 in 10.0 mi South 6.9 mph - N/A   Clear
9:55 PM 82.4 °F 82.9 °F 60.8 °F 48% 30.01 in 10.0 mi South 6.9 mph - N/A   Clear
10:15 PM 80.6 °F 81.5 °F 60.8 °F 51% 30.02 in 10.0 mi South 8.1 mph - N/A   Clear
10:35 PM 80.6 °F 81.8 °F 62.6 °F 54% 30.03 in 10.0 mi South 8.1 mph - N/A   Clear
10:55 PM 80.6 °F 81.8 °F 62.6 °F 54% 30.03 in 10.0 mi South 8.1 mph - N/A   Clear
11:15 PM 78.8 °F - 62.6 °F 57% 30.04 in 10.0 mi South 6.9 mph - N/A   Clear
11:35 PM 78.8 °F - 62.6 °F 57% 30.04 in 10.0 mi South 6.9 mph - N/A   Clear
11:55 PM 77.0 °F - 62.6 °F 61% 30.05 in 10.0 mi South 8.1 mph - N/A   Clear